Regional Weather Roundup
Issued by NWS

Home | Current Version | Previous Version | Text Only | Print | Product List | Glossary On
Versions: 1 2 3 4 5 6 7 8 9 10 11 12 13 14 15 16 17 18 19 20 21 22 23 24 25 26 27 28 29 30 31 32 33 34 35 36 37 38 39 40 41 42 43 44 45 46 47 48 49 50
000
ASUS43 KDTX 192301
RWRMI
MICHIGAN HOURLY REGIONAL WEATHER ROUNDUP
NATIONAL WEATHER SERVICE DETROIT/PONTIAC MI
700 PM EDT FRI SEP 19 2014

NOTE: "FAIR" INDICATES FEW OR NO CLOUDS BELOW 12,000 FEET WITH NO
SIGNIFICANT WEATHER AND/OR OBSTRUCTION TO VISIBILITY.

MIZ047>049-052>055-059>063-066>070-074>076-081>083-200000-
SOUTHEAST LOWER MICHIGAN

CITY           SKY/WX    TMP DP  RH WIND       PRES   REMARKS
ADRIAN         CLEAR     64  50  60 SE7       30.10F
ALMA           MOCLDY    65  51  59 S6        30.04F
ANN ARBOR      CLEAR     61  46  57 SE7       30.10F
BAD AXE        PTCLDY    59  46  60 S12       30.07F
CARO           PTCLDY    59  45  59 SE8       30.06F
DETROIT CITY   CLEAR     64  47  53 S9        30.11F
DETROIT        MOCLDY    61  48  62 SE5       30.12F
FLINT          PTCLDY    62  42  47 S7        30.08F
GROSSE ILE     PTCLDY    63  54  72 SE8       30.10F
HILLSDALE      CLEAR     66  47  49 CALM      30.09F
HOWELL         CLEAR     62  46  56 S6        30.08F

CITY           SKY/WX    TMP DP  RH WIND       PRES   REMARKS
JACKSON        CLEAR     65  49  56 SE7       30.08F
LAMBERTVILLE   CLEAR     63  52  67 E3        30.11F
LANSING        PTCLDY    66  48  52 S12       30.07F
LAPEER         FAIR      59  46  60 S3        30.08F
MASON          PTCLDY    63  49  59 S6        30.07F
MONROE         CLEAR     61  52  72 E6        30.10F
MT. CLEMENS    MOCLDY    60  54  80 S10       30.09F
PONTIAC        MOCLDY    62  41  46 SE12      30.09F
PORT HOPE        N/A     62  43  49 S7        30.05F
PORT HURON     CLEAR     59  50  72 S7        30.11F
TRI CITIES     MOCLDY    64  49  57 S8        30.06F
TROY           CLEAR     64  43  46 SE9       30.12F
SAGINAW HB     PTCLDY    61  46  59 S7        30.05F
$$
MIZ043>046-050>051-056>058-064>065-071>073-077>080-200000-
SOUTHWEST LOWER MICHIGAN

CITY           SKY/WX    TMP DP  RH WIND       PRES   REMARKS
BATTLE CREEK   CLEAR     67  48  50 S9        30.07F
BENTON HARBOR  CLEAR     68  48  48 S9        30.04S
BIG RAPIDS     PTCLDY    65  54  67 S7G18     30.01S
COLDWATER      PTCLDY    67  49  51 S6        30.08F
FREMONT        FAIR      66  48  52 S7        30.01S HAZE
HOLLAND        CLEAR     68  53  58 S8        30.04S
GRAND RAPIDS   MOCLDY    67  53  61 S9        30.04F
IONIA          FAIR      68  49  50 S9        30.04F
KALAMAZOO      CLEAR     68  49  50 S9        30.07F
LUDINGTON      CLEAR     64  53  66 S15G22    29.99S
MARSHALL       PTCLDY    65  48  53 S7        30.07S
MOUNT PLEASANT MOCLDY    66  50  57 S8        30.02F
MUSKEGON       MOCLDY    67  53  61 S10       30.02F
SOUTH HAVEN    CLEAR     69  50  50 S7        30.04S
$$
MIZ016>042-200000-
NORTHERN LOWER MICHIGAN

CITY           SKY/WX    TMP DP  RH WIND       PRES   REMARKS
ALPENA         CLOUDY    61  49  64 S12       30.00F
BEAVER ISLAND  MOCLDY    66  52  60 S16G23    29.90S
BELLAIRE       PTCLDY    67  51  57 S15       29.93F
CADILLAC       PTCLDY    63  53  68 S15       29.98F
CHARLEVOIX     MOCLDY    66  52  60 S9G16     29.94F
FRANKFORT      PTCLDY    67  49  52 S13G23    29.93F
GAYLORD        PTCLDY    61  49  64 S20G25    29.96F
GRAYLING       PTCLDY    62  50  66 S12G17    30.00F
HARBOR SPRINGS MOCLDY    66  51  58 S10G18    29.92F
HOUGHTON LAKE  MOCLDY    61  51  70 S9        30.01F
MANISTEE       PTCLDY    66  46  48 S8G17     29.97F
OSCODA         MOCLDY    61  50  66 S7        30.01F
PELLSTON       MOCLDY    66  50  56 S14G23    29.92F
ROGERS CITY    MOCLDY    61  51  70 S12G17    29.99S
TRAVERSE CITY  MOCLDY    67  50  54 S8G18     29.91F
$$
MIZ007>008-015-200000-
EASTERN UPPER MICHIGAN

CITY           SKY/WX    TMP DP  RH WIND       PRES   REMARKS
KINROSS        CLOUDY    63  52  67 S13G20    29.90S
MACKINAC ISLAN MOCLDY    64  51  62 S9G21     29.90F
NEWBERRY       CLOUDY    62  51  67 S28G39    29.84F
S. S. MARIE    CLOUDY    60  51  72 SE9       29.89F
$$
MIZ004>006-011>014-085-200000-
CENTRAL UPPER MICHIGAN

CITY           SKY/WX    TMP DP  RH WIND       PRES   REMARKS
MANISTIQUE     CLOUDY    61  54  78 S21G30    29.84F
ESCANABA       MOCLDY    61  54  77 S16G22    29.81F
MENOMINEE      MOCLDY    64  54  68 S14G21    29.81F
SAWYER-GWINN   CLEAR     63  55  77 S22G28    29.74F
$$
MIZ001>003-009>011-084-200000-
WESTERN UPPER MICHIGAN

CITY           SKY/WX    TMP DP  RH WIND       PRES   REMARKS
IRON MOUNTAIN  MOCLDY    67  51  56 S18G28    29.75F
HOUGHTON       LGT RAIN  61  54  77 SW10      29.66F
COPPER HARBOR    N/A     59  54  83 SW8       29.66R
IRONWOOD       CLOUDY    66  55  68 S16G29    29.66S
$$

ABBREVIATIONS USED IN REMARKS
   TC - TEMPERATURE IN CELSIUS
  WCI - WIND CHILL INDEX
   HX - HEAT INDEX
  VSB - VISIBILITY



USA.gov is the U.S. government's official web portal to all federal, state and local government web resources and services.